ILAIGU24 Weather Reports


Display with metric or nautical units.
time (UTC)temp
F
wind
direction
speed
MPH
gust
MPH
rain 1hr
in
rain 24hr
in
rain mn
in
humidity
%
barometer
mb
20260507131513 67 102 0.0 7.0 0.00 0.00 0.00 73 1015.1
20260507130005 68 124 2.0 6.0 0.00 0.00 0.00 70 1014.9
20260507124507 68 148 3.0 6.0 0.00 0.00 0.00 71 1014.9
20260507123013 68 125 3.0 7.0 0.00 0.00 0.00 71 1014.7
20260507121516 67 97 3.0 7.0 0.00 0.00 0.00 70 1014.6
20260507120010 67 122 0.0 5.0 0.00 0.00 0.00 70 1014.5
20260507114506 68 113 1.0 6.0 0.00 0.00 0.00 70 1014.6
20260507113019 68 126 1.0 6.0 0.00 0.00 0.00 70 1014.8
20260507111533 68 109 2.0 6.0 0.00 0.00 0.00 71 1014.9
20260507110025 67 107 2.0 7.0 0.00 0.00 0.00 72 1014.9
20260507104518 68 126 2.0 6.0 0.00 0.00 0.00 70 1014.9
20260507103013 68 121 2.0 6.0 0.00 0.00 0.00 70 1014.9
20260507101512 68 121 2.0 6.0 0.00 0.00 0.00 71 1015.0
20260507100010 68 120 3.0 6.0 0.00 0.00 0.00 70 1015.0
20260507094505 68 80 2.0 7.0 0.00 0.00 0.00 70 1014.9
20260507093006 68 98 2.0 7.0 0.00 0.00 0.00 68 1014.6
20260507091510 68 113 3.0 4.0 0.00 0.00 0.00 69 1014.6
20260507090013 67 115 2.0 4.0 0.00 0.00 0.00 69 1014.4
20260507084514 67 117 2.0 4.0 0.00 0.00 0.00 70 1014.4
20260507083013 67 118 2.0 3.0 0.00 0.00 0.00 69 1014.1
20260507081508 66 94 2.0 6.0 0.00 0.00 0.00 70 1014.1
20260507080013 65 124 0.0 4.0 0.00 0.00 0.00 71 1014.1
20260507074516 65 123 1.0 6.0 0.00 0.00 0.00 72 1014.1
20260507073031 65 128 2.0 4.0 0.00 0.00 0.00 73 1013.9
20260507071521 64 119 2.0 4.0 0.00 0.00 0.00 74 1013.8
20260507070012 64 129 0.0 4.0 0.00 0.00 0.00 75 1013.8
20260507064522 64 115 2.0 6.0 0.00 0.00 0.00 75 1013.7
20260507063024 64 121 3.0 7.0 0.00 0.00 0.00 76 1013.4
20260507061526 63 120 2.0 4.0 0.00 0.00 0.00 76 1013.3
20260507060028 62 100 0.0 3.0 0.00 0.00 0.00 79 1013.3
20260507054526 60 246 0.0 3.0 0.00 0.00 0.00 82 1013.2
20260507053020 59 245 0.0 3.0 0.00 0.00 0.00 85 1013.0
20260507051520 58 245 1.0 4.0 0.00 0.00 0.00 86 1012.7
20260507050033 57 238 1.0 6.0 0.00 0.00 0.00 89 1012.6
20260507044535 56 257 1.0 3.0 0.00 0.00 0.00 89 1012.6
20260507043028 56 257 1.0 3.0 0.00 0.02 0.00 89 1012.4
20260507041528 56 257 2.0 4.0 0.00 0.07 0.00 89 1012.4
20260507040005 56 257 1.0 4.0 0.00 0.09 0.00 89 1012.4
20260507034504 56 257 2.0 4.0 0.00 0.09 0.00 89 1012.2
20260507033004 56 257 2.0 4.0 0.00 0.09 0.00 89 1012.1
20260507031503 56 242 2.0 5.0 0.00 0.09 0.00 89 1012.1
20260507030004 55 242 2.0 4.0 0.00 0.09 0.00 89 1012.1
20260507024504 55 242 2.0 4.0 0.00 0.10 0.00 89 1012.0
20260507023004 55 242 2.0 4.0 0.00 0.10 0.00 89 1012.0
20260507021503 55 242 2.0 4.0 0.00 0.10 0.00 89 1012.0
20260507020005 55 242 2.0 4.0 0.00 0.10 0.00 89 1011.9
20260507014506 55 242 2.0 4.0 0.00 0.10 0.00 88 1011.8
20260507013004 56 242 2.0 4.0 0.00 0.10 0.00 88 1011.7
20260507011516 56 242 2.0 4.0 0.00 0.10 0.00 88 1011.7
20260507010004 56 242 2.0 4.0 0.00 0.10 0.00 89 1011.7
20260507004523 56 242 2.0 4.0 0.00 0.10 0.00 89 1011.8
20260507003004 56 242 2.0 4.0 0.00 0.10 0.00 89 1011.8
20260507001508 56 242 3.0 4.0 0.00 0.10 0.00 89 1011.6
20260507000014 57 242 1.0 4.0 0.00 0.11 0.00 88 1011.6
20260506234509 57 242 1.0 4.0 0.00 0.11 0.00 88 1011.7
20260506233012 57 242 1.0 3.0 0.00 0.12 0.00 88 1011.7
20260506231517 57 242 1.0 4.0 0.00 0.13 0.00 88 1011.7
20260506230013 57 242 2.0 3.0 0.00 0.14 0.00 87 1011.7
20260506224512 57 242 2.0 3.0 0.00 0.14 0.00 87 1011.7
20260506223014 58 242 1.0 4.0 0.00 0.14 0.00 87 1011.7
20260506221512 58 242 2.0 5.0 0.00 0.14 0.00 87 1011.7
20260506220012 58 242 2.0 4.0 0.00 0.14 0.00 86 1011.6
20260506214511 58 245 2.0 4.0 0.00 0.14 0.14 86 1011.5
20260506213010 59 259 2.0 4.0 0.00 0.14 0.14 84 1011.7
20260506211516 60 259 0.0 1.0 0.00 0.14 0.14 82 1011.5
20260506210016 61 259 0.0 0.0 0.00 0.14 0.14 79 1011.4
20260506204516 62 130 1.0 8.0 0.00 0.14 0.14 79 1011.3
20260506203022 62 70 5.0 11.0 0.00 0.14 0.14 79 1011.3
20260506201529 63 314 0.0 3.0 0.00 0.14 0.14 78 1011.1
20260506200015 63 90 0.0 3.0 0.00 0.14 0.14 78 1010.9
20260506194521 63 287 0.0 6.0 0.00 0.14 0.14 78 1010.6
20260506193021 63 112 1.0 10.0 0.00 0.14 0.14 77 1010.2
20260506191516 63 113 0.0 3.0 0.00 0.14 0.14 76 1010.1
20260506190022 63 135 0.0 2.0 0.00 0.14 0.14 75 1009.7
20260506184521 63 276 1.0 6.0 0.00 0.14 0.14 74 1009.5
20260506183027 64 293 1.0 5.0 0.00 0.14 0.14 73 1009.3
20260506181520 64 311 4.0 9.0 0.00 0.14 0.14 73 1009.3
20260506180008 64 143 1.0 14.0 0.00 0.14 0.14 73 1009.0
20260506174508 64 118 0.0 13.0 0.00 0.14 0.14 73 1009.0
20260506173004 64 144 1.0 10.0 0.00 0.14 0.14 73 1009.0
20260506171504 65 158 1.0 11.0 0.00 0.14 0.14 71 1009.0
20260506170003 65 101 2.0 11.0 0.00 0.14 0.14 71 1009.0
20260506164506 65 109 2.0 11.0 0.00 0.14 0.14 71 1009.0
20260506163004 65 94 2.0 11.0 0.00 0.14 0.14 71 1008.9
20260506161508 66 98 3.0 14.0 0.00 0.14 0.14 70 1009.0
20260506160008 66 252 2.0 10.0 0.00 0.14 0.14 70 1008.9
20260506154503 66 111 4.0 12.0 0.00 0.14 0.14 70 1009.0
20260506153004 66 10 2.0 11.0 0.00 0.14 0.14 70 1008.9
20260506151506 66 68 2.0 11.0 0.00 0.14 0.14 71 1009.0
20260506150008 66 121 1.0 8.0 0.00 0.14 0.14 72 1008.9
20260506144515 66 121 4.0 15.0 0.00 0.14 0.14 72 1009.0
20260506143020 66 115 3.0 12.0 0.00 0.14 0.14 71 1009.0
20260506141507 66 75 4.0 18.0 0.00 0.14 0.14 70 1008.8
20260506140007 66 30 2.0 14.0 0.00 0.14 0.14 70 1009.0
20260506134513 66 213 5.0 20.0 0.00 0.14 0.14 70 1009.1
20260506133016 67 112 7.0 12.0 0.00 0.14 0.14 69 1009.3